{"data":{"norad_id":69339,"epoch":"2026-09-20T00:17:41.049888Z","epoch_age_seconds":71100,"freshness":"FRESH","line1":"1 69339U 26122L   26263.01228067  .00011917  00000+0  37077-3 0  9993","line2":"2 69339  97.2836 291.6243 0001029  91.8559 268.2802 15.33453875 16721","mean_motion":15.33453875,"eccentricity":0.0001029,"inclination_deg":97.2836,"raan_deg":291.6243,"arg_perigee_deg":91.8559,"mean_anomaly_deg":268.2802,"bstar":0.00037077,"rev_number":1672,"period_min":93.905661166365,"perigee_km":464.81255687676,"apogee_km":466.22098082239,"semimajor_km":6843.6537688496,"source":"CELESTRAK","updated_at":"2026-09-20T09:00:44.160945Z"}}